Location: Moscow
(30.9132°N, 94.8252°W)
Time: 13:44:11
(UTC+00:00)

Cosmos 1943 Rocket - Pass Details

Date: 15 November 2025
Orbit: 812 x 841 km, 71.0° (Epoch: 06 December)

Event Time Altitude Azimuth Distance (km) Brightness Sun altitude
Exits shadow 10:28:00 67° 134° (SE) 878 2.3 -29.6°
Drops below altitude 10° 10:32:45 10° 157° (SSE) 2,389 4.8 -28.6°
Sets 10:35:10 0° 159° (SSE) 3,318 5.6 -28.1°
